Latest Coastal Weather Observations for Wilsons Promontory

IDV60701

Issued at 2:51 pm EST Sunday 23 July 2017 (issued every 10 minutes, with the page automatically refreshed every 10 minutes)

About coastal observations | Map of coastal stations | Coastal observations for VIC | Marine services | Other Formats
Station Details ID: 085096 Name: WILSONS PROMONTORY LIGHTHOUSE Lat: -39.13 Lon: 146.42 Height: 95.0 m
Data from the previous 72 hours. | See also: Recent months at Wilsons Promontory
Date/Time
EST
Temp
°C
Wind Pressure Rain since
9am
mm
Weather Cloud Vis
km
Sea
Height
m
Swell
Dir  Spd
kts
Gust
kts
hPa Trend Height
m
Period
s
Dir
23/02:30pm 11.8 WNW 25 41 1006.5 - 0.2 - - - - - - -
23/02:00pm 12.2 WNW 21 40 1006.6 - 0.2 - - - - - - -
23/01:30pm 12.2 WNW 25 41 1006.6 - 0.2 - - - - - - -
23/01:00pm 12.6 WNW 29 43 1006.6 - 0.0 - - - - - - -
23/12:30pm 12.6 WNW 25 45 1006.9 - 0.0 - - - - - - -
23/12:00pm 12.4 WNW 25 41 1007.0 - 0.0 - - - - - - -
23/11:30am 12.4 WNW 19 41 1007.6 - 0.0 - - - - - - -
23/11:00am 12.6 WNW 17 32 1007.8 - 0.0 - - - - - - -
23/10:39am 12.2 W 19 33 1007.9 - 0.0 - - - - - - -
23/10:30am 12.6 W 12 31 1008.0 - 0.0 - - - - - - -
23/10:00am 12.0 WNW 16 33 1008.0 - 0.0 - - - - - - -
23/09:54am 12.0 WNW 15 33 1008.0 - 0.0 - - - - - - -
23/09:30am 12.5 WNW 11 28 1008.2 - 0.0 - - - - - - -
23/09:00am 12.1 NW 12 29 1008.0 - 0.0 - - - - - - -
23/08:30am 12.2 NW 12 33 1007.9 - 0.0 - - - - - - -
23/08:11am 12.0 WNW 15 37 1007.7 - 0.0 - - - - - - -
23/08:00am 11.9 WNW 11 22 1007.9 - 0.0 - - - - - - -
23/07:32am 12.0 WNW 15 32 1007.8 - 0.0 - - - - - - -
23/07:30am 12.1 WNW 13 32 1007.8 - 0.0 - - - - - - -
23/07:00am 11.9 NNW 19 33 1007.3 - 0.0 - - - - - - -
23/06:30am 11.9 NNW 16 33 1007.0 - 0.0 - - - - - - -
23/06:19am 11.9 NW 16 35 1006.6 - 0.0 - - - - - - -
23/06:00am 11.7 NNW 9 26 1007.1 - 0.0 - - - - - - -
23/05:32am 12.4 WNW 15 33 1007.1 - 0.0 - - - - - - -
23/05:30am 12.5 NW 13 33 1007.1 - 0.0 - - - - - - -
23/05:21am 12.7 NW 15 32 1007.1 - 0.0 - - - - - - -
23/05:18am 12.8 W 20 33 1006.7 - 0.0 - - - - - - -
23/05:11am 12.9 NW 19 33 1006.7 - 0.0 - - - - - - -
23/05:00am 13.0 WNW 14 34 1007.0 - 0.0 - - - - - - -
23/04:30am 13.4 NW 17 37 1006.7 - 0.0 - - - - - - -
23/04:00am 13.3 NW 19 40 1006.9 - 0.0 - - - - - - -
23/03:30am 13.5 NNW 21 50 1006.7 - 0.0 - - - - - - -
23/03:29am 13.5 NNW 21 50 1006.4 - 0.0 - - - - - - -
23/03:00am 13.2 NNW 21 39 1006.8 - 0.0 - - - - - - -
23/02:30am 12.9 NNW 22 46 1007.4 - 0.0 - - - - - - -
23/02:00am 12.8 NNW 20 43 1008.0 - 0.0 - - - - - - -
23/01:30am 12.8 NNW 21 48 1008.2 - 0.0 - - - - - - -
23/01:23am 12.9 NNW 18 48 1008.0 - 0.0 - - - - - - -
23/01:00am 13.1 NNW 21 38 1008.5 - 0.0 - - - - - - -
23/12:30am 13.1 NNW 18 37 1009.1 - 0.0 - - - - - - -
23/12:00am 13.4 NNW 20 40 1009.3 - 0.0 - - - - - - -
 
Date/Time
EST
Temp
°C
Wind Pressure Rain since
9am
mm
Weather Cloud Vis
km
Sea
Height
m
Swell
Dir  Spd
kts
Gust
kts
hPa Trend Height
m
Period
s
Dir
22/11:30pm 13.1 NNW 21 41 1009.6 - 0.0 - - - - - - -
22/11:00pm 13.1 NNW 22 47 1010.1 - 0.0 - - - - - - -
22/10:51pm 13.1 NNW 19 47 1010.0 - 0.0 - - - - - - -
22/10:33pm 12.7 NNW 15 31 1010.3 - 0.0 - - - - - - -
22/10:30pm 12.7 NNW 14 27 1010.4 - 0.0 - - - - - - -
22/10:00pm 12.4 NNW 20 35 1010.4 - 0.0 - - - - - - -
22/09:30pm 12.2 NNW 16 38 1010.6 - 0.0 - - - - - - -
22/09:27pm 12.2 NNW 15 28 1010.7 - 0.0 - - - - - - -
22/09:00pm 12.1 NNW 14 31 1010.9 - 0.0 - - - - - - -
22/08:30pm 12.4 NNW 15 32 1010.9 - 0.0 - - - - - - -
22/08:00pm 12.5 NNW 17 30 1011.0 - 0.0 - - - - - - -
22/07:30pm 12.7 NNW 18 35 1010.9 - 0.0 - - - - - - -
22/07:00pm 12.9 NNW 17 42 1010.9 - 0.0 - - - - - - -
22/06:56pm 13.0 NNW 17 42 1010.8 - 0.0 - - - - - - -
22/06:30pm 13.6 NNW 18 31 1010.8 - 0.0 - - - - - - -
22/06:00pm 13.8 NNW 19 34 1010.5 - 0.0 - - - - - - -
22/05:30pm 13.5 NNW 19 36 1010.6 - 0.0 - - - - - - -
22/05:08pm 13.2 NNW 20 43 1010.7 - 0.0 - - - - - - -
22/05:00pm 13.1 NNW 17 33 1011.0 - 0.0 - - - - - - -
22/04:30pm 13.1 NNW 16 37 1011.2 - 0.0 - - - - - - -
22/04:06pm 13.0 NNW 15 28 1011.1 - 0.0 - - - - - - -
22/04:00pm 13.1 NNW 13 35 1011.4 - 0.0 - - - - - - -
22/03:30pm 13.4 NNW 19 34 1011.3 - 0.0 - - - - - - -
22/03:00pm 13.2 NNW 20 32 1011.7 - 0.0 - - - - - - -
22/02:30pm 12.8 NNW 22 35 1011.7 - 0.0 - - - - - - -
22/02:00pm 12.7 NNW 28 41 1011.6 - 0.0 - - - - - - -
22/01:30pm 12.5 NNW 26 43 1012.2 - 0.0 - - - - - - -
22/01:00pm 12.5 NNW 24 36 1013.0 - 0.0 - - - - - - -
22/12:30pm 11.9 NW 23 38 1013.8 - 0.0 - - - - - - -
22/12:00pm 12.0 NNW 26 47 1014.8 - 0.0 - - - - - - -
22/11:30am 11.7 NW 25 45 1014.8 - 0.0 - - - - - - -
22/11:00am 10.8 NW 26 50 1015.5 - 0.0 - - - - - - -
22/10:30am 10.9 NW 24 42 1015.8 - 0.0 - - - - - - -
22/10:00am 10.6 NW 25 40 1015.8 - 0.0 - - - - - - -
22/09:30am 10.3 NW 24 45 1016.3 - 0.0 - - - - - - -
22/09:00am 10.2 WNW 19 35 1017.2 - 0.0 - - - - - - -
22/08:30am 9.9 NW 18 33 1017.1 - 0.0 - - - - - - -
22/08:10am 9.9 NW 18 38 1017.2 - 0.0 - - - - - - -
22/08:00am 9.7 WNW 17 27 1017.6 - 0.0 - - - - - - -
22/07:58am 9.7 NNW 15 27 1017.5 - 0.0 - - - - - - -
22/07:30am 9.5 ENE 9 24 1017.9 - 0.0 - - - - - - -
22/07:05am 8.9 N 15 32 1017.8 - 0.0 - - - - - - -
22/07:00am 8.6 NNW 11 24 1017.9 - 0.0 - - - - - - -
22/06:30am 8.8 N 11 26 1017.8 - 0.0 - - - - - - -
22/06:20am 8.7 NNW 18 30 1017.8 - 0.0 - - - - - - -
22/06:00am 8.7 NNW 7 15 1017.9 - 0.0 - - - - - - -
22/05:30am 8.9 NNW 11 26 1017.5 - 0.0 - - - - - - -
22/05:00am 8.8 N 11 27 1017.6 - 0.0 - - - - - - -
22/04:30am 8.7 NNW 8 15 1018.0 - 0.0 - - - - - - -
22/04:00am 8.3 N 9 19 1018.2 - 0.0 - - - - - - -
22/03:30am 8.3 NNE 5 9 1018.7 - 0.0 - - - - - - -
22/03:00am 8.5 NE 5 12 1019.0 - 0.0 - - - - - - -
22/02:30am 8.7 NW 9 22 1019.0 - 0.0 - - - - - - -
22/02:00am 9.0 N 6 15 1019.6 - 0.0 - - - - - - -
22/01:30am 9.3 N 6 14 1019.8 - 0.0 - - - - - - -
22/01:00am 9.5 N 5 12 1020.1 - 0.0 - - - - - - -
22/12:30am 9.7 N 6 11 1020.5 - 0.0 - - - - - - -
22/12:00am 9.6 NNW 8 15 1021.0 - 0.0 - - - - - - -
 
Date/Time
EST
Temp
°C
Wind Pressure Rain since
9am
mm
Weather Cloud Vis
km
Sea
Height
m
Swell
Dir  Spd
kts
Gust
kts
hPa Trend Height
m
Period
s
Dir
21/11:30pm 8.8 N 8 11 1021.2 - 0.0 - - - - - - -
21/11:00pm 8.9 N 10 12 1021.3 - 0.0 - - - - - - -
21/10:30pm 9.4 N 11 13 1021.2 - 0.0 - - - - - - -
21/10:00pm 8.4 NNE 8 10 1021.2 - 0.0 - - - - - - -
21/09:30pm 8.8 NNE 6 8 1021.3 - 0.0 - - - - - - -
21/09:00pm 9.2 NW 3 5 1021.5 - 0.0 - - - - - - -
21/08:30pm 9.2 N 9 14 1021.2 - 0.0 - - - - - - -
21/08:00pm 9.2 NNE 8 11 1021.2 - 0.0 - - - - - - -
21/07:30pm 9.1 NNE 8 10 1021.2 - 0.0 - - - - - - -
21/07:00pm 9.3 NNE 5 6 1021.3 - 0.0 - - - - - - -
21/06:30pm 9.5 NNE 4 5 1021.4 - 0.0 - - - - - - -
21/06:00pm 9.5 NNE 3 4 1021.5 - 0.0 - - - - - - -
21/05:30pm 9.7 N 2 4 1021.5 - 0.0 - - - - - - -
21/05:00pm 9.8 N 5 6 1021.4 - 0.0 - - - - - - -
21/04:30pm 10.4 CALM 0 3 1021.4 - 0.0 - - - - - - -
21/04:00pm 10.7 ESE 2 5 1021.3 - 0.0 - - - - - - -
21/03:30pm 11.0 WNW 7 12 1021.5 - 0.0 - - - - - - -
21/03:00pm 10.9 W 9 13 1021.7 - 0.0 - - - - - - -
21/02:30pm 11.0 W 10 13 1021.4 - 0.0 - - - - - - -
21/02:00pm 11.0 W 11 13 1021.4 - 0.0 - - - - - - -
21/01:30pm 11.5 WNW 11 16 1021.7 - 0.0 - - - - - - -
21/01:00pm 10.7 WNW 10 15 1022.1 - 0.0 - - - - - - -
21/12:30pm 10.6 WNW 12 16 1022.7 - 0.0 - - - - - - -
21/12:00pm 11.0 WNW 10 15 1023.0 - 0.0 - - - - - - -
21/11:30am 11.5 WNW 9 14 1023.3 - 0.0 - - - - - - -
21/11:00am 11.1 WNW 9 14 1023.6 - 0.0 - - - - - - -
21/10:30am 11.4 NW 6 9 1023.6 - 0.0 - - - - - - -
21/10:00am 11.6 NW 6 11 1023.6 - 0.0 - - - - - - -
21/09:30am 11.4 N 4 8 1023.4 - 0.0 - - - - - - -
21/09:00am 10.9 NW 6 10 1023.3 - 0.0 - - - - - - -
21/08:30am 10.2 W 6 7 1022.8 - 0.0 - - - - - - -
21/08:00am 9.7 W 5 6 1022.5 - 0.0 - - - - - - -
21/07:30am 9.1 W 4 6 1022.3 - 0.0 - - - - - - -
21/07:00am 9.4 CALM 0 0 1022.1 - 0.0 - - - - - - -
21/06:30am 9.8 CALM 0 0 1021.8 - 0.0 - - - - - - -
21/06:00am 9.7 CALM 0 0 1021.6 - 0.0 - - - - - - -
21/05:30am 9.5 CALM 0 0 1021.2 - 0.0 - - - - - - -
21/05:00am 9.7 CALM 0 0 1021.2 - 0.0 - - - - - - -
21/04:30am 9.7 CALM 0 0 1021.1 - 0.0 - - - - - - -
21/04:00am 9.9 CALM 0 3 1021.1 - 0.0 - - - - - - -
21/03:30am 10.0 ESE 3 4 1021.0 - 0.0 - - - - - - -
21/03:00am 10.2 ESE 4 6 1021.0 - 0.0 - - - - - - -
21/02:30am 10.3 SE 7 9 1020.9 - 0.0 - - - - - - -
21/02:00am 10.4 SSE 8 9 1021.0 - 0.0 - - - - - - -
21/01:30am 10.4 SE 7 8 1020.8 - 0.0 - - - - - - -
21/01:00am 10.6 SE 8 10 1020.8 - 0.0 - - - - - - -
21/12:30am 10.7 SE 10 11 1020.8 - 0.0 - - - - - - -
21/12:00am 10.5 S 11 14 1020.8 - 0.0 - - - - - - -
 
Date/Time
EST
Temp
°C
Wind Pressure Rain since
9am
mm
Weather Cloud Vis
km
Sea
Height
m
Swell
Dir  Spd
kts
Gust
kts
hPa Trend Height
m
Period
s
Dir
20/11:30pm 10.7 S 11 14 1020.7 - 0.0 - - - - - - -
20/11:00pm 10.8 S 15 17 1020.4 - 0.0 - - - - - - -
20/10:30pm 10.8 SW 10 14 1020.0 - 0.0 - - - - - - -
20/10:00pm 10.7 W 6 13 1020.0 - 0.0 - - - - - - -
20/09:30pm 10.7 WSW 8 11 1019.6 - 0.0 - - - - - - -
20/09:00pm 10.5 W 7 14 1019.5 - 0.0 - - - - - - -
20/08:30pm 10.3 W 8 14 1019.3 - 0.0 - - - - - - -
20/08:00pm 10.3 WSW 9 18 1018.8 - 0.0 - - - - - - -
20/07:33pm 10.2 SW 15 25 1018.4 - 0.0 - - - - - - -
20/07:30pm 10.2 SW 15 24 1018.5 - 0.0 - - - - - - -
20/07:02pm 9.9 SW 17 27 1017.6 - 0.0 - - - - - - -
20/07:00pm 10.1 SW 18 28 1017.7 - 0.0 - - - - - - -
20/06:31pm 9.9 SW 19 29 1017.1 - 0.0 - - - - - - -
20/06:30pm 9.9 SW 20 29 1017.2 - 0.0 - - - - - - -
20/06:08pm 9.7 SSW 15 25 1016.6 - 0.0 - - - - - - -
20/06:00pm 9.7 SW 12 25 1016.7 - 0.0 - - - - - - -
20/05:34pm 9.6 SW 20 34 1016.0 - 0.0 - - - - - - -
20/05:32pm 9.8 WSW 17 34 1015.9 - 0.0 - - - - - - -
20/05:30pm 9.6 SW 30 34 1015.9 - 0.0 - - - - - - -
20/05:14pm 9.5 WSW 15 30 1015.7 - 0.0 - - - - - - -
20/05:00pm 9.6 SSW 14 35 1015.3 - 0.0 - - - - - - -
20/04:56pm 9.6 E 12 36 1015.4 - 0.0 - - - - - - -
20/04:51pm 9.6 SW 26 36 1015.1 - 0.0 - - - - - - -
20/04:49pm 9.5 SW 30 36 1015.0 - 0.0 - - - - - - -
20/04:37pm 9.5 WSW 16 32 1014.8 - 0.0 - - - - - - -
20/04:34pm 9.6 NW 15 36 1014.7 - 0.0 - - - - - - -
20/04:30pm 9.6 SW 27 37 1014.8 - 0.0 - - - - - - -
20/04:00pm 9.4 SW 23 40 1014.4 - 0.0 - - - - - - -
20/03:58pm 9.3 SW 24 40 1014.4 - 0.0 - - - - - - -
20/03:55pm 9.5 SW 23 40 1014.4 - 0.0 - - - - - - -
20/03:52pm 9.3 SW 35 40 1014.2 - 0.0 - - - - - - -
20/03:30pm 9.1 SW 22 33 1013.9 - 0.0 - - - - - - -
20/03:22pm 9.2 WSW 17 41 1013.9 - 0.0 - - - - - - -
20/03:10pm 9.2 SW 31 41 1013.5 - 0.0 - - - - - - -
20/03:09pm 9.2 SW 32 41 1013.5 - 0.0 - - - - - - -
20/03:00pm 9.3 SW 19 35 1013.6 - 0.0 - - - - - - -

Other Formats:

Comma delimited format used in spreadsheet applications
http://www.bom.gov.au/fwo/IDV60701/IDV60701.94893.axf

JavaScript Object Notation format (JSON) in row-major order
http://www.bom.gov.au/fwo/IDV60701/IDV60701.94893.json